Weather History for Dutch Harbor, AK

Change the Weather History Date:

Wednesday, November 21, 2012

  Actual Average Record
Temperature  
Mean Temperature 33 °F -  
Max Temperature 34 °F 45 °F 101 °F (1985)
Min Temperature 32 °F 31 °F 15 °F (1992)
Degree Days  
Heating Degree Days 32    
Moisture  
Dew Point 23 °F    
Average Humidity 66    
Maximum Humidity 75    
Minimum Humidity 60    
Precipitation  
Precipitation 0.00 in - - ()
Sea Level Pressure  
Sea Level Pressure 30.06 in    
Wind  
Wind Speed 25 mph (NNW)    
Max Wind Speed 36 mph    
Max Gust Speed 58 mph    
Visibility 10 miles    
Events      
Averages and records for this station are not official NWS values.
T = Trace of Precipitation, MM = Missing Value Source: NWS Daily Summary

Daily Weather History Graph

Daily Weather History Graph

Search for Another Location

Airport:

Trip Planner

Search our weather history database for the weather conditions in past years. The results will help you decide how hot, cold, wet, or windy it might be!

Date:

Astronomy

Nov. 21, 2012 Rise Set
Actual Time 9:45 AM AKST 5:58 PM AKST
Civil Twilight 9:05 AM AKST 6:38 PM AKST
Nautical Twilight 8:21 AM AKST 7:22 PM AKST
Astronomical Twilight 7:39 AM AKST 8:04 PM AKST
Moon 3:09 PM AKST 2:24 AM AKST
Length of Visible Light 9h 33m
Length of Day
8h 12m
Waxing Gibbous, 63% of the Moon is Illuminated
Nov 21
Waxing Gibbous
Nov 28
Full
Dec 6
Last Quarter
Dec 12
New
Dec 19
First Quarter

Hourly Weather History & Observations

Time (AKST) Temp. Windchill Dew Point Humidity Pressure Visibility Wind Dir Wind Speed Gust Speed Precip Events Conditions
12:56 AM 32.0 °F 16.5 °F 21.9 °F 66% 30.02 in 10.0 mi NNW 35.7 mph 43.7 mph N/A   Overcast
1:15 AM 32.0 °F 19.2 °F 21.2 °F 64% 30.00 in 10.0 mi NNW 23.0 mph 57.5 mph N/A   Overcast
1:56 AM 32.0 °F 16.5 °F 23.0 °F 69% 30.01 in 10.0 mi NNW 35.7 mph 52.9 mph N/A   Overcast
2:56 AM 33.1 °F 20.6 °F 21.9 °F 64% 30.01 in 10.0 mi NNW 23.0 mph 46.0 mph N/A   Overcast
3:56 AM 33.1 °F 19.3 °F 21.9 °F 64% 30.02 in 10.0 mi NNW 28.8 mph 42.6 mph N/A   Overcast
4:56 AM 33.1 °F 20.1 °F 24.1 °F 70% 30.04 in 10.0 mi North 25.3 mph 46.0 mph N/A   Overcast
5:56 AM 33.1 °F 20.9 °F 21.9 °F 64% 30.04 in 10.0 mi NNW 21.9 mph 41.4 mph N/A   Overcast
6:20 AM 32.0 °F 21.2 °F 21.2 °F 64% 30.03 in 10.0 mi North 16.1 mph 41.4 mph N/A   Overcast
6:31 AM 32.0 °F 18.4 °F 23.0 °F 69% 30.01 in 10.0 mi NNW 26.5 mph 48.3 mph N/A   Overcast
6:56 AM 32.0 °F 19.5 °F 23.0 °F 69% 30.04 in 10.0 mi North 21.9 mph 38.0 mph N/A   Overcast
7:18 AM 32.0 °F 18.9 °F 21.2 °F 64% 30.03 in 10.0 mi North 24.2 mph 48.3 mph N/A   Overcast
7:52 AM 32.0 °F 20.8 °F 23.0 °F 69% 30.03 in 10.0 mi North 17.3 mph 49.5 mph N/A   Overcast
7:54 AM 32.0 °F 18.1 °F 24.8 °F 75% 30.02 in 10.0 mi North 27.6 mph 49.5 mph N/A   Overcast
7:56 AM 32.0 °F 23.0 °F 24.1 °F 73% 30.05 in 10.0 mi ESE 11.5 mph 49.5 mph N/A   Overcast
8:12 AM 33.8 °F 21.6 °F 23.0 °F 65% 30.03 in 10.0 mi NNW 23.0 mph 33.4 mph N/A   Overcast
8:36 AM 33.8 °F 23.2 °F 23.0 °F 65% 30.01 in 10.0 mi NNW 17.3 mph 52.9 mph N/A   Overcast
8:56 AM 32.0 °F 19.5 °F 23.0 °F 69% 30.06 in 10.0 mi NNW 21.9 mph 31.1 mph N/A   Overcast
9:18 AM 33.8 °F 22.2 °F 23.0 °F 65% 30.05 in 10.0 mi North 20.7 mph 35.7 mph N/A   Overcast
9:24 AM 33.8 °F 22.8 °F 23.0 °F 65% 30.05 in 10.0 mi NNW 18.4 mph 35.7 mph N/A   Overcast
9:56 AM 33.1 °F 21.9 °F 23.0 °F 66% 30.07 in 10.0 mi North 18.4 mph 43.7 mph N/A   Overcast
10:03 AM 33.8 °F 21.0 °F 24.8 °F 70% 30.05 in 10.0 mi NNW 25.3 mph 43.7 mph N/A   Overcast
10:05 AM 33.8 °F 23.2 °F 24.8 °F 70% 30.06 in 10.0 mi NNE 17.3 mph 39.1 mph N/A   Overcast
10:56 AM 33.1 °F 19.1 °F 25.0 °F 72% - 10.0 mi NNW 29.9 mph 54.1 mph N/A   Overcast
11:21 AM 33.8 °F 23.2 °F 21.2 °F 60% 30.08 in 10.0 mi North 17.3 mph 34.5 mph N/A   Overcast
11:56 AM 33.1 °F 21.2 °F 21.9 °F 64% 30.07 in 10.0 mi NNW 20.7 mph 32.2 mph N/A   Overcast
12:56 PM 34.0 °F 22.1 °F 23.0 °F 64% 30.10 in 10.0 mi NNW 21.9 mph 35.7 mph N/A   Overcast
1:56 PM 34.0 °F 21.3 °F 24.1 °F 67% 30.08 in 10.0 mi NNW 25.3 mph 31.1 mph N/A   Overcast
2:56 PM 34.0 °F 21.0 °F 24.1 °F 67% 30.09 in 10.0 mi NNW 26.5 mph 31.1 mph N/A   Overcast
3:56 PM 34.0 °F 22.1 °F 23.0 °F 64% 30.09 in 10.0 mi NNW 21.9 mph 31.1 mph N/A   Overcast
4:56 PM 34.0 °F 20.8 °F 23.0 °F 64% 30.08 in 10.0 mi NNW 27.6 mph 35.7 mph N/A   Overcast
5:56 PM 34.0 °F 20.3 °F 24.1 °F 67% 30.07 in 10.0 mi North 29.9 mph 39.1 mph N/A   Overcast
6:17 PM 33.8 °F 22.2 °F 23.0 °F 65% 30.07 in 10.0 mi NNW 20.7 mph 41.4 mph N/A   Overcast
6:47 PM 33.8 °F 22.2 °F 23.0 °F 65% 30.08 in 10.0 mi North 20.7 mph 38.0 mph N/A   Overcast
6:56 PM 34.0 °F 22.4 °F 23.0 °F 64% 30.10 in 10.0 mi NNW 20.7 mph 34.5 mph N/A   Overcast
7:56 PM 34.0 °F 21.3 °F 21.9 °F 61% 30.09 in 10.0 mi NNW 25.3 mph 32.2 mph N/A   Overcast
8:20 PM 33.8 °F 21.3 °F 23.0 °F 65% 30.08 in 10.0 mi NNW 24.2 mph 29.9 mph N/A   Overcast
8:56 PM 34.0 °F 22.7 °F 23.0 °F 64% 30.09 in 10.0 mi North 19.6 mph 41.4 mph N/A   Overcast
10:56 PM 34.0 °F 21.8 °F 23.0 °F 64% 30.09 in 10.0 mi NNW 23.0 mph 29.9 mph N/A   Overcast
11:41 PM 33.8 °F 22.2 °F 21.2 °F 60% 30.08 in 10.0 mi NNW 20.7 mph 28.8 mph N/A   Overcast
11:56 PM 34.0 °F 22.1 °F 23.0 °F 64% 30.10 in 10.0 mi NNW 21.9 mph 31.1 mph N/A   Overcast